Location: Poughquag
(41.6090°N, 73.6820°W)
Time: 17:54:41
(UTC-05:00)

A-11 Canister half - Pass Details

Date: 16 December 2023
Orbit: 1526 x 1682 km, 47.3° (Epoch: 23 February)

Event Time Altitude Azimuth Distance (km) Brightness Sun altitude
Rises 17:04:12 0° 254° (WSW) 4,892 13.9 -7.2°
Reaches altitude 10° 17:07:21 10° 256° (WSW) 3,919 12.8 -7.7°
Maximum altitude 17:17:29 75° 342° (NNW) 1,733 9.3 -9.5°
Enters shadow 17:26:52 13° 67° (ENE) 3,690 10.3 -11.1°
